Starlink 1560

operational
NORAD ID: 46036 Int'l Des: 2020-055 Owner: SPXS Country: US Constellation: starlink
LEOCIRCULARSTARLINK_TYPE

About Starlink 1560

Description loading...

Live Position

Loading 3D Globe...

Upcoming Passes

Altitude History

Altitude vs Time

uPlot chart will show altitude changes over time

Two-Line Element Set

1 46036U 20055K 25304.28977380 .00004402 00000-0 31424-3 0 9996
2 46036 53.0551 347.5199 0001276 93.4588 266.6547 15.06396845289395
Epoch: Oct 31, 2025 • Age: 10 hours

Current Status

Altitude 548.7 km
Velocity 7.59 km/s
Sub-Earth Point -4.06°S, 131.53°W
Launch Date Aug 7, 2020
Age 5.2 years
Type internet

Technical Details

Classification Payload
Mass 260.00 kg
Dry Mass 248.00 kg
Total Mass 260.00 kg
Length 0.20 m
Diameter 2.80 m
Span 9.00 m
Shape Box + pan
Manufacturer SPXS
Bus Type Starlink
Phase Status In Orbit
Owner/State SPXS/US

Large Constellations

Loading constellations...